Skip Page Navigation
NASA JPL Caltech
NASA Logo - Jet Propulsion Laboratory + View the NASA Portal
+ Center for Near-Earth Object Studies
JPL Home Earth Solar System Stars & Galaxies Technology
JPL Solar System Dynamics
BODIES ORBITS EPHEMERIDES TOOLS PHYSICAL DATA DISCOVERY FAQ SITE MAP

Significant website upgrade scheduled for September 27. More details available here.

JPL Small-Body Database Browser
Search: [ help ]  
79304 (1995 WM35)
Classification: Main-belt Asteroid          SPK-ID: 2079304
Ephemeris | Orbit Diagram | Orbital Elements | Mission Design | Physical Parameters | Discovery Circumstances ]

[ show orbit diagram ]
Orbital Elements at Epoch 2459396.5 (2021-Jul-01.0) TDB
Reference: JPL 31 (heliocentric ecliptic J2000)
 Element Value Uncertainty (1-sigma)   Units 
e .1802011911224021 3.6017e-08  
a 2.239951447283477 6.757e-09 au
q 1.836309528426645 8.2016e-08 au
i 6.491236819489604 3.9042e-06 deg
node 42.29606359073779 2.4598e-05 deg
peri 329.8575168717394 2.5884e-05 deg
M 253.748262448733 9.2948e-06 deg
tp 2459757.901436204676
(2022-Jun-27.40143620)
3.2623e-05 TDB
period 1224.4930768394
3.35
5.5407e-06
1.517e-08
d
yr
n .2939992122529707 1.3303e-09 deg/d
Q 2.643593366140307 7.9746e-09 au
  Orbit Determination Parameters
   # obs. used (total)      1241  
   data-arc span      9362 days (25.63 yr)  
   first obs. used      1995-11-21  
   last obs. used      2021-07-09  
   planetary ephem.      DE441  
   SB-pert. ephem.      SB441-N16  
   condition code      0  
   norm. resid. RMS      .50208  
   source      ORB  
   producer      Otto Matic  
   solution date      2021-Aug-25 22:02:38  

Additional Information
 Earth MOID = .839692 au 
 Jupiter MOID = 2.82406 au 
 T_jup = 3.605 
[ show covariance matrix ]

Ephemeris | Orbit Diagram | Orbital Elements | Mission Design | Physical Parameters | Discovery Circumstances ]

Physical Parameter Table
Parameter Symbol Value Units Sigma Reference Notes
absolute magnitude H 15.53   n/a MPO637105  
diameter diameter 2.679 km 0.440 urn:nasa:pds:neowise_diameters_albedos::2.0[mainbelt] (http://adsabs.harvard.edu/abs/2011ApJ...741...68M)  
geometric albedo albedo 0.187   0.053 urn:nasa:pds:neowise_diameters_albedos::2.0[mainbelt] (http://adsabs.harvard.edu/abs/2011ApJ...741...68M)  

79304 (1995 WM35)          Discovered 1995-Nov-21 by Spacewatch at Kitt Peak
Reference: 20040504/Numbers.arcLast Updated: 2004-07-16

Alternate Designations
 1995 WM35 = 2000 EQ146 
Ephemeris | Orbit Diagram | Orbital Elements | Mission Design | Physical Parameters | Discovery Circumstances ]
ABOUT SSD CREDITS/AWARDS PRIVACY/COPYRIGHT GLOSSARY LINKS
FirstGov 2021-Sep-18 08:49 UT
(server date/time)  
NASA Home Page
Site Manager:   Ryan S. Park
Webmaster  Alan B. Chamberlin